Orbital Elements at Epoch 2459200.5 (2020-Dec-17.0) TDB
Reference: JPL 19 (heliocentric ecliptic J2000)
Element | Value | Uncertainty (1-sigma) | Units |
e | .1408170948437686 | 4.3151e-08 | |
a | 2.266147291604847 | 7.0717e-09 | au |
q | 1.947035013512977 | 9.8708e-08 | au |
i | 6.949515299388329 | 3.8785e-06 | deg |
node | 140.7173549049193 | 4.0468e-05 | deg |
peri | 272.895204502708 | 4.3379e-05 | deg |
M | 100.0721226717886 | 1.4607e-05 | deg |
tp | 2458854.129226803338 (2020-Jan-05.62922680) | 5.0472e-05 | TDB |
period | 1246.03610897474 3.41 | 5.8325e-06 1.597e-08 | d yr |
n | .288916185820822 | 1.3524e-09 | deg/d |
Q | 2.585259569696716 | 8.0675e-09 | au |
|
| | Orbit Determination Parameters
Additional Information
|